This is the latest recevied weather packets stored in our database for station/object DG8GAA-11. If no packets are shown the sender has not sent any weather packets the latest 10 day(s).
| Time | Temp. | Humidity | Pressure | Rain* | Wind** | Luminosity | Snow |
|---|---|---|---|---|---|---|---|
| 1777552430 | 21.67° C | 23% | 1003.9 hPa | - | - | - | - |
| 1777551527 | 20.56° C | 24% | 1004 hPa | - | - | - | - |
| 1777550624 | 20° C | 25% | 1004.2 hPa | - | - | - | - |
| 1777549721 | 19.44° C | 25% | 1004.3 hPa | - | - | - | - |
| 1777548818 | 18.33° C | 26% | 1004.3 hPa | - | - | - | - |
| 1777547915 | 17.78° C | 27% | 1004.5 hPa | - | - | - | - |
| 1777547012 | 16.67° C | 27% | 1004.7 hPa | - | - | - | - |
| 1777546109 | 16.11° C | 28% | 1004.8 hPa | - | - | - | - |
| 1777545206 | 15.56° C | 29% | 1004.9 hPa | - | - | - | - |
| 1777544303 | 14.44° C | 30% | 1005.2 hPa | - | - | - | - |
| 1777543400 | 13.89° C | 30% | 1005.1 hPa | - | - | - | - |
| 1777541594 | 13.33° C | 31% | 1005.3 hPa | - | - | - | - |
| 1777540691 | 13.33° C | 31% | 1005.4 hPa | - | - | - | - |
| 1777539788 | 13.33° C | 30% | 1005.4 hPa | - | - | - | - |
| 1777538885 | 12.78° C | 31% | 1005.4 hPa | - | - | - | - |
| 1777537982 | 13.33° C | 31% | 1005.4 hPa | - | - | - | - |
| 1777537079 | 13.33° C | 32% | 1005.5 hPa | - | - | - | - |
| 1777536176 | 13.33° C | 32% | 1005.6 hPa | - | - | - | - |
| 1777535273 | 13.33° C | 32% | 1005.6 hPa | - | - | - | - |
| 1777534370 | 13.33° C | 32% | 1005.5 hPa | - | - | - | - |
| 1777533467 | 13.89° C | 32% | 1005.6 hPa | - | - | - | - |
| 1777532564 | 14.44° C | 32% | 1005.6 hPa | - | - | - | - |
| 1777531661 | 15° C | 40% | 1005.7 hPa | - | - | - | - |
| 1777530758 | 15.56° C | 40% | 1005.5 hPa | - | - | - | - |
| 1777529855 | 15.56° C | 42% | 1005.5 hPa | - | - | - | - |
* Rain since midnight (hover to see other rain measurements)
** Current wind speed in m/s (hover to see current wind gust speed)